Tracking 35237 objects as of 5-Sep-2026
HD Live streaming from Space Station
objects crossing your sky now

COSMOS 1275 DEB

Track COSMOS 1275 DEB now!
10-day predictions


NORAD ID: 42166
Int'l Code: 1981-053SE
Launch date: June 4, 1981
Source: Commonwealth of Independent States (former USSR) (CIS)
Launch site: PLESETSK MISSILE AND SPACE COMPLEX (PKMTR)

Note: This is SATELLITE DEBRIS
Your satellite tracking list
Your tracking list is empty




NASA's NSSDC Master Catalog

Two Line Element Set (TLE):
1 42166U 81053SE  26239.17176074  .00003365  00000-0  21300-2 0  9996
2 42166  82.8896 192.5173 0139866 342.8111  16.8345 13.99073295645968
Source of the keplerian elements: AFSPC